Location: Isola Pescaroli
(45.0500°N, 10.1667°E)
Time: 13:37:37
(UTC+00:00)

OBJECT-B - Pass Details

Date: 03 March 2021
Orbit: 414 x 427 km, 97.0° (Epoch: 11 April)

Event Time Altitude Azimuth Distance (km) Brightness Sun altitude
Exits shadow 19:38:15 22° 322° (NW) 995 3.2 -26.7°
Drops below altitude 10° 19:39:36 10° 334° (NNW) 1,514 4.1 -27.0°
Sets 19:41:41 0° 342° (NNW) 2,381 5.1 -27.3°
